Miscellaneous Local Product
Issued by NWS North Platte, NE

Home | Current Version | Previous Version | Graphics & Text | Print | Product List | Glossary On
Versions: 1 2 3 4 5 6 7 8 9 10 11 12 13 14 15 16 17 18 19 20 21 22 23 24 25 26 27 28 29 30 31 32 33 34 35 36 37 38 39 40 41 42 43 44 45 46 47 48 49 50
000
AXUS43 KLBF 242210
MISLBF


WESTERN AND NORTH CENTRAL NEBRASKA HOURLY WEATHER ROUNDUP
NATIONAL WEATHER SERVICE NORTH PLATTE NE
400 PM CST WED DEC 24 2014

***STATIONS NOT REPORTING VARIABLES SUCH AS SKY/WEATHER OR
PRESSURE ARE PROVIDED BY THE NEBRASKA DEPARTMENT OF
ROADS...RAWS...AND APRS NETWORKS...AND ARE NOT UNDER
NATIONAL WEATHER SERVICE QUALITY CONTROL***

...OBSERVATIONS IN AND NEAR THE EASTERN PANHANDLE OF NEBRASKA...

CITY           SKY/WX    TMP DP  RH WIND       PRES   REMARKS
PINE RIDGE     CLOUDY    37  22  54 W6        29.57F WCI  32
CHADRON        CLOUDY    39  24  55 S8        29.56F WCI  33
ALLIANCE       PTSUNNY   40  25  55 W12       29.59F WCI  33
SIDNEY         SUNNY     36  22  56 SW12      29.65F WCI  28
WHITECLAY        N/A     33  21  60 S7          N/A  WCI  27
CRESCENT LAKE    N/A     42  22  45 W8G15       N/A
LISCO            N/A     44  19  36 W10         N/A
BIG SPRINGS      N/A     40  26  57 W8          N/A  WCI  34
$$

...OBSERVATIONS IN NORTH CENTRAL NEBRASKA...

CITY           SKY/WX    TMP DP  RH WIND       PRES   REMARKS
VALENTINE      CLOUDY    36  24  62 S9        29.59F WCI  29
THEDFORD       MOSUNNY   39  26  59 SW10      29.63F WCI  32
AINSWORTH      MOCLDY    35  24  63 SW10      29.61F WCI  27
O`NEILL        PTCLDY    33  26  74 S6        29.66F WCI  28
ORD            PTCLDY    38  22  52 SW7       29.67F WCI  33
BROKEN BOW     MOSUNNY   39  25  57 SW10      29.66F WCI  32
BROWNLEE         N/A     37  19  48 S9          N/A  WCI  31
BREWSTER         N/A     40  24  53 SW10        N/A  WCI  33
ROSE             N/A     38  27  64 S9          N/A  WCI  31
COMSTOCK         N/A     41  23  49 SW10        N/A
$$

...OBSERVATIONS IN SOUTHWEST NEBRASKA AND FAR NORTHEAST COLORADO...

CITY           SKY/WX    TMP DP  RH WIND       PRES   REMARKS
WRAY           FAIR      47  24  41 S6        29.70F
HOLYOKE        FAIR      43  27  52 SW6       29.68F
IMPERIAL       SUNNY     45  21  38 SW13      29.68F
OGALLALA       SUNNY     39  25  57 W8        29.65F WCI  33
NORTH PLATTE   MOSUNNY   40  22  48 SW12      29.67F WCI  33
MCCOOK         MOSUNNY   44  18  35 SW12      29.72S
LEXINGTON      MOSUNNY   40  22  49 SW12G17   29.71S WCI  33
PAXTON           N/A     43  28  56 SW5         N/A
GOTHENBURG       N/A     40  18  41 SW6         N/A
CALLAWAY         N/A     38  26  61 SW10        N/A  WCI  31
$$

...NORTH PLATTE AREA...

CITY           SKY/WX    TMP DP  RH WIND       PRES   REMARKS
AIRPORT        MOSUNNY   40  22  48 SW12      29.67F WCI  33
$$

...SOME WEATHER OBSERVATIONS FROM AROUND THE REGION...

CITY           SKY/WX    TMP DP  RH WIND       PRES   REMARKS
DENVER         PTSUNNY   51  16  24 W12       29.64F
LARAMIE        MOSUNNY   32  16  51 SW29G36   29.66F WCI  18
CHEYENNE       CLOUDY    40  18  41 W28G38    29.60F WCI  29
SCOTTSBLUFF    CLOUDY    44  26  49 W22G29    29.61F
RAPID CITY     CLOUDY    37  27  67 E3        29.50F
PIERRE         CLOUDY    29  22  75 SE10      29.55F WCI  20
WINNER         FAIR      34  23  64 S7        29.59F WCI  28
SIOUX FALLS    CLOUDY    25  24  96 SW7       29.68F FOG     WCI  17
OMAHA          CLOUDY    31  27  85 W7        29.78F WCI  24
GRAND ISLAND   CLEAR     38  24  57 W9        29.74S WCI  31
KANSAS CITY    CLOUDY    35  30  82 W12       29.81R WCI  27
WICHITA        MOSUNNY   45  25  45 W10       29.86S
HAYS           SUNNY     45  16  31 SW15      29.79F
LIBERAL        SUNNY     46  16  29 SW16      29.84F
GOODLAND       MOSUNNY   42  22  44 SW15      29.73F
$$



USA.gov is the U.S. government's official web portal to all federal, state and local government web resources and services.